KABQ

Albuquerque International Sunport/Kirtland Air Force Base

Airport
ICAO code
KABQ
IATA Code
ABQ
Summary
ICAO Region
NAM
ICAO Territory
Location

Bernalillo County, New Mexico

Serving
Albuquerque
Elevation
5355 ft
Coordinates
35° 2' 34" N , 106° 36' 18" W
KCC
Airport RE
Hot and High Operations
Metar
KABQ 271452Z VRB04KT 10SM CLR 19/08 A3024 RMK AO2 SLP164 T01890083 51014

Description

Albuquerque International Sunport/Kirtland Air Force Base is a joint public/military (USAF) airport located 3 nm southeast of the central business district of Albuquerque, a city in Bernalillo County, New Mexico.

 

Airport map

Aerial View

SKYbrary Partners:

Safety knowledge contributed by: